Location: Unspecified
(44.0704°N, 88.6889°W)
Time: 15:05:58
(UTC+02:00)

Altair - Pass Details

Date: 18 June 2019
Orbit: 1501 x 1683 km, 47.2° (Epoch: 17 July)

Event Time Altitude Azimuth Distance (km) Brightness Sun altitude
Rises 12:43:34 0° 292° (WNW) 4,915 9.8 4.1°
Reaches altitude 10° 12:47:39 10° 278° (W) 3,937 9.2 4.8°
Maximum altitude 12:54:43 22° 233° (SW) 3,086 8.6 5.9°
Drops below altitude 10° 13:01:48 10° 188° (S) 3,925 9.3 7.0°
Sets 13:05:54 0° 174° (S) 4,895 9.9 7.7°
